SCP
0 0 0 0 0 0 0 0 0 0 0 0 0 0 0 0 0 0 0 0 0 0 0 0 0 0 0 0 0 0 0 0 0 0 0 0 0 0
0 0 0 0 0 0 0 0 0 0 0 0 0 0 0 0 0 0 0 0 0 0 0 0 0 0 0 0 0 0 0 0 0 0 0 0 0 0
0 0 0 0 0 0 0 0 0 0 0 0 0 0 0 0 0 0 0 0 0 0 0 0 0 0 0 0 0 0 0 0 0 0 0 0 0 0
0 0 0 0 0 0 0 0 0 0 0 0 0 0 0 0 0 0 0 0 0 0 0 0 0 0 0 0 0 0 0 0 0 0 0 0 0 0
0 0 0 0 0 0 0 0 0 0 0 0 0 0 0 0 0 0 0 0 0 0 0 0 0 0 0 0 0 0 0 0 0 0 0 0 0 0
0 0 0 0 0 0 0 0 0 0 0 0 0 0 0 0 0 0 0 0 0 0 0 0 0 0 0 0 0 0 0 0 0 0 0 0 0 0
0 0 0 0 0 0 0 0 0 0 0 0 0 0 0 0 0 0 0 0 0 0 0 0 0 0 0 0 0 0 0 0 0 0 0 0 0 0
0 0 0 0 0 0 0 0 0 0 0 0 0 0 0 0 0 0 0 0 0 0 0 0 0 0 0 0 0 0 0 0 0 0 0 0 0 0
0 0 0 0 0 0 0 0 0 0 0 0 0 0 0 0 0 0 0 0 0 0 0 0 0 0 0 0 0 0 0 0 0 0 0 0 0 0
0 0 0 0 0 0 0 0 0 0 0 0 0 0 0 0 0 0 0 0 0 0 0 0 0 0 0 0 0 0 0 0 0 0 0 0 0 0
0 0 0 0 0 0 0 0 0 0 0 0 0 0 0 0 0 0 0 0 0 0 0 0 0 0 0 0 0 0 0 0 0 0 0 0 0 0
0 0 0 0 0 0 0 0 0 0 0 0 0 0 0 0 0 0 0 0 0 0 0 0 0 0 0 0 0 0 0 0 0 0 0 0 0 0
0 0 0 0 0 0 0 0 0 0 0 0 0 0 0 0 0 0 0 0 0 0 0 0 0 0 0 0 0 0 0 0 0 0 0 0 0 0
0 0 0 0 0 0 0 0 0 0 0 0 0 0 0 0 0 0 0 0 0 0 0 0 0 0 0 0 0 0 0 0 0 0 0 0 0 0
0 0 0 0 0 0 0 0 0 0 0 0 0 0 0 0 0 0 0 0 0 0 0 0 0 0 0 0 0 0 0 0 0 0 0 0 0 0
0 0 0 0 0 0 0 0 0 0 0 0 0 0 0 0 0 0 0 0 0 0 0 0 0 0 0 0 0 0 0 0 0 0 0 0 0 0
0 0 0 0 0 0 0 0 0 0 0 0 0 0 0 0 0 0 0 0 0 0 0 0 0 0 0 0 0 0 0 0 0 0 0 0 0 0
0 0 0 0 0 0 0 0 0 0 0 0 0 0 0 0 0 0 0 0 0 0 0 0 0 0 0 0 0 0 0 0 0 0 0 0 0 0
0 0 0 0 0 0 0 0 0 0 0 0 0 0 0 0 0 0 0 0 0 0 0 0 0 0 0 0 0 0 0 0 0 0 0 0 0 0
0 0 0 0 0 0 0 0 0 0 0 0 0 0 0 0 0 0 0 0 0 0 0 0 0 0 0 0 0 0 0 0 0 0 0 0 0 0
0 0 0 0 0 0 0 0 0 0 0 0 0 0 0 0 0 0 0 0 0 0 0 0 0 0 0 0 0 0 0 0 0 0 0 0 0 0
0 0 0 0 0 0 0 0 0 0 0 0 0 0 0 0 0 0 0 0 0 0 0 0 0 0 0 0 0 0 0 0 0 0 0 0 0 0
0 0 0 0 0 0 0 0 0 0 0 0 0 0 0 0 0 0 0 0 0 0 0 0 0 0 0 0 0 0 0 0 0 0 0 0 0 0
Wind_Speed
16 16 15 12 10 10 9 9 10 12 12 8 7 7 8 7 15 10 8 19 23 23 24 24 25 25 26 26 27 27 27 27 27 28 28 28 29 29
13 14 15 12 10 10 10 9 11 13 14 5 8 6 7 8 14 10 10 21 24 24 24 25 26 26 26 27 27 28 28 28 29 29 30 30 30 30
14 15 17 13 11 10 10 10 12 11 17 8 6 7 8 8 8 6 6 8 9 23 25 26 26 27 27 27 28 28 29 29 29 30 30 31 31 31
16 16 17 13 15 12 11 13 13 13 14 14 6 7 10 9 8 8 9 9 8 19 25 26 27 27 27 27 28 28 29 29 30 30 31 32 32 32
15 16 16 14 16 13 14 13 12 12 12 12 9 7 8 7 8 8 10 8 10 15 22 24 26 27 27 27 27 28 29 29 30 30 31 32 33 34
14 15 15 15 16 15 14 14 12 12 10 10 10 8 8 7 6 8 9 8 9 10 14 17 21 25 26 27 28 28 29 29 30 31 32 33 33 34
13 13 14 18 22 17 12 10 10 10 10 10 11 10 9 8 8 7 10 7 7 8 9 10 11 10 12 21 25 27 29 30 31 32 33 33 34 34
13 12 13 18 23 28 29 25 20 15 13 12 11 12 11 10 9 9 8 7 7 6 8 10 8 10 9 8 20 28 29 30 31 32 33 34 34 35
12 11 10 11 18 12 19 27 25 29 26 16 15 14 12 11 10 11 10 10 11 7 5 10 8 10 9 12 25 28 30 31 32 33 34 34 35 35
10 11 11 11 12 12 10 12 12 13 16 16 14 13 12 9 10 12 11 11 10 8 8 11 9 10 10 8 21 28 30 31 32 33 34 34 35 35
8 9 10 10 17 23 14 11 12 11 20 25 22 19 22 24 18 10 10 10 10 8 7 8 8 9 10 9 14 26 30 31 32 32 33 33 33 33
6 8 15 15 18 21 13 11 12 10 9 10 14 17 14 16 22 13 8 8 7 6 5 5 5 5 9 8 8 9 13 22 29 31 32 33 33 21
6 5 7 17 20 21 19 12 15 11 8 9 9 8 8 7 8 7 7 7 8 8 4 4 5 7 10 12 9 8 9 10 12 17 24 30 32 27
6 5 8 17 19 21 16 16 21 18 8 8 9 9 8 8 7 7 8 8 9 10 7 6 6 8 12 15 14 7 7 9 11 13 12 21 26 30
6 11 13 17 17 14 18 20 17 10 8 9 9 8 7 6 5 4 5 6 7 8 9 9 10 9 11 14 16 14 13 12 11 12 12 13 13 13
6 9 14 15 12 12 12 10 7 6 7 7 6 5 4 4 5 4 4 4 5 7 8 10 11 11 12 14 15 16 14 12 9 10 12 13 13 13
6 4 3 4 5 5 5 5 4 4 5 4 5 4 4 5 4 4 4 4 5 7 8 6 7 9 13 14 15 15 15 14 13 12 13 14 14 13
9 5 5 5 5 5 6 5 5 5 4 4 4 4 4 4 4 3 4 4 7 8 8 7 6 8 9 11 17 17 14 14 12 12 13 14 16 13
7 4 5 5 5 5 5 5 5 5 4 4 4 4 4 4 4 4 4 5 7 8 8 7 6 9 13 15 9 14 14 13 13 13 12 13 16 14
4 4 4 5 5 5 5 5 4 4 4 4 4 4 4 4 4 5 5 6 8 9 9 7 6 8 12 15 14 11 16 15 13 14 13 12 14 19
4 4 4 4 4 5 5 5 5 4 4 4 4 4 4 4 5 5 6 11 11 9 10 9 9 15 11 10 13 12 9 15 19 15 14 13 14 13
4 4 4 4 4 4 4 4 4 4 4 4 4 4 4 4 5 6 7 7 8 9 11 10 8 8 8 11 14 16 15 13 15 23 25 22 13 9
4 4 4 4 4 4 4 4 5 4 4 4 4 4 4 4 5 6 7 8 8 9 10 10 8 7 9 10 13 13 16 16 12 11 12 18 25 28
Wind_Direction
231 230 231 231 224 222 217 211 228 255 255 211 218 218 219 218 233 233 225 245 254 259 263 265 267 269 270 272 273 274 276 276 277 277 276 276 276 276
229 229 231 230 226 221 220 218 219 238 259 211 211 202 209 220 231 227 223 243 252 259 263 266 267 268 269 270 271 272 272 273 274 274 275 276 276 276
230 230 232 226 226 222 220 219 223 225 249 243 202 206 206 220 236 229 224 235 250 258 263 266 267 267 268 268 269 269 271 272 273 275 276 276 276 276
234 231 233 226 226 224 222 223 225 223 236 248 215 208 217 221 227 233 240 242 237 254 260 263 265 265 266 267 268 269 271 272 273 274 275 276 276 276
235 232 232 226 229 225 223 224 224 225 227 238 233 215 223 224 228 238 242 241 244 253 260 263 264 265 266 267 268 270 271 272 273 274 275 275 275 276
238 234 231 226 228 225 225 224 221 222 221 229 234 227 228 220 220 236 246 237 242 247 254 258 261 264 265 267 269 271 273 275 275 275 275 274 274 273
243 238 234 233 232 230 227 220 215 218 219 225 233 232 228 220 222 224 240 245 245 241 248 251 255 256 259 265 269 272 273 274 274 274 274 273 272 271
245 241 238 246 247 246 242 233 217 214 218 221 227 228 226 223 224 227 233 240 253 225 232 246 240 248 247 242 259 266 269 271 272 273 273 273 273 272
239 238 238 236 241 237 247 250 242 230 220 214 225 225 224 220 220 227 229 232 242 235 231 259 250 255 250 256 264 269 272 273 274 275 275 274 273 271
238 233 232 231 229 228 226 232 236 241 237 228 221 222 224 220 215 224 232 242 249 246 232 257 256 257 259 251 265 270 273 274 275 275 274 273 272 271
243 233 233 230 237 241 233 226 231 234 243 241 239 232 228 229 222 222 228 236 250 245 217 237 257 266 266 261 262 269 271 273 275 275 275 274 273 272
250 238 247 246 241 246 239 225 227 225 219 234 244 251 248 244 242 231 223 238 255 257 217 219 248 269 278 252 246 253 262 268 271 273 273 273 273 271
256 241 237 255 255 248 239 226 231 222 207 216 224 231 235 237 240 233 219 225 245 253 220 209 251 260 270 280 269 254 252 257 262 265 268 269 269 267
257 245 240 252 254 253 247 235 233 231 214 211 217 222 224 226 224 220 220 223 230 244 245 228 250 263 274 280 283 270 248 252 257 262 259 263 266 266
261 263 260 258 257 254 252 245 237 226 212 209 211 218 217 214 206 209 222 230 241 244 247 238 243 255 260 272 280 282 282 274 258 257 259 258 257 257
282 280 280 274 263 246 244 250 238 221 210 209 205 204 193 194 204 205 221 230 253 263 244 238 240 246 259 267 273 278 276 273 267 260 263 263 258 251
252 238 241 249 246 234 223 222 216 209 209 189 192 195 200 208 215 204 215 228 249 271 277 258 242 244 251 263 272 271 273 272 270 270 270 269 262 253
271 228 222 229 233 231 218 210 204 201 197 192 193 198 206 213 224 220 220 234 259 268 272 273 274 278 272 255 246 263 266 269 271 268 266 270 271 261
277 241 219 218 222 215 206 197 195 192 185 190 197 200 206 215 225 235 240 251 262 267 269 267 265 277 286 288 259 243 263 273 275 272 267 265 270 271
259 245 222 211 208 205 199 192 190 185 186 196 202 205 207 215 230 242 249 255 267 272 274 265 255 260 271 283 287 273 262 266 271 273 272 269 267 270
250 236 218 206 202 200 195 190 189 191 191 193 204 209 208 214 235 246 254 268 275 276 277 276 265 278 281 281 281 280 267 264 268 270 273 273 274 273
248 231 213 204 199 194 189 185 187 193 195 201 209 212 212 218 238 250 257 266 270 272 276 279 278 279 274 277 281 287 291 286 276 274 268 260 260 263
240 225 206 196 192 184 182 186 192 200 201 205 211 215 217 231 242 252 261 267 273 277 282 287 286 276 274 276 282 287 291 295 295 290 278 267 261 258